[Iaude] MPEC V09: 2023 VB [a=2.40,e=0.61,i=8.8,H=25.0]
    mpec at marsden.cfa.harvard.edu 
    mpec at marsden.cfa.harvard.edu
       
    Fri Nov  3 07:55:34 EDT 2023
    
    
  
M.P.E.C. 2023-V09                              Issued 2023 November 3, 11:53 UT
     The Minor Planet Electronic Circulars contain information on unusual
         minor planets, routine data on comets and natural satellites,
         and occasional editorial announcements.  They are published
    on behalf of Division F of the International Astronomical Union by the
          Minor Planet Center, Smithsonian Astrophysical Observatory,
                          Cambridge, MA 02138, U.S.A.
			  
             Prepared using the Tamkin Foundation Computer Network
                              MPC at CFA.HARVARD.EDU
            URL https://www.minorplanetcenter.net/    ISSN 1523-6714
                                    2023 VB                                     
Observations:
     K23V00B*1C2023 11 01.31942601 54 48.719+51 05 44.38         19.76GVEV009G96
     K23V00B 1C2023 11 01.32464301 54 52.600+51 05 43.55         20.25GVEV009G96
     K23V00B 1C2023 11 01.33508401 55 00.167+51 05 41.32         20.30GVEV009G96
     K23V00B KC2023 11 01.37274901 55 27.650+51 05 29.00               VEV009I52
     K23V00B KC2023 11 01.37495601 55 29.270+51 05 27.80         19.91GVEV009I52
     K23V00B KC2023 11 01.37717101 55 30.840+51 05 26.80         20.15GVEV009I52
     K23V00B KC2023 11 01.37938701 55 32.510+51 05 26.30         20.74GVEV009I52
     K23V00B  C2023 11 01.38718301 55 37.734+51 05 15.66         20.3 GVEV009H01
     K23V00B  C2023 11 01.39070501 55 40.335+51 05 14.03         20.0 GVEV009H01
     K23V00B  C2023 11 01.40609801 55 51.726+51 05 06.54         20.7 GVEV009H01
     K23V00B KC2023 11 01.41285301 55 56.704+51 05 02.95         20.2 GVEV009H01
     K23V00B KC2023 11 02.09182802 04 33.67 +51 02 59.7          21.1 GVEV009H21
     K23V00B KC2023 11 02.09335702 04 37.29 +51 02 46.7          19.2 GXEV009858
     K23V00B KC2023 11 02.09462602 04 35.41 +51 02 59.9                VEV009H21
     K23V00B KC2023 11 02.09742402 04 37.17 +51 03 00.1                VEV009H21
     K23V00B KC2023 11 02.10012202 04 41.60 +51 02 48.1          20.2 GXEV009858
     K23V00B KC2023 11 02.10301902 04 40.67 +51 03 00.3          21.0 GVEV009H21
     K23V00B KC2023 11 02.10581502 04 42.46 +51 03 01.0          21.0 GVEV009H21
     K23V00B KC2023 11 02.10707802 04 46.08 +51 02 48.6          19.9 GXEV009858
     K23V00B KC2023 11 03.13885902 15 16.229+50 56 06.07         21.34GVEV009I52
     K23V00B KC2023 11 03.14256302 15 18.090+50 56 05.39         20.51GVEV009I52
     K23V00B KC2023 11 03.14362802 15 18.637+50 56 05.46         21.08GVEV009I52
     K23V00B KC2023 11 03.20662102 15 48.88 +50 55 52.2          19.9 GXEV009858
     K23V00B KC2023 11 03.21261102 15 51.73 +50 55 50.1          20.2 GXEV009858
     K23V00B KC2023 11 03.21815402 15 54.39 +50 55 47.5          20.3 GXEV009858
Observer details:
858 Tebbutt Observatory, Edgewood.  Observer F. B. Zoltowski.  0.51-m f/8.1
    Schmidt-Cassegrain + CCD.
G96 Mt. Lemmon Survey.  Observer J. B. Fazekas.  Measurers E. C. Beshore, D.
    Fay, J. B. Fazekas, D. C. Fuls, A. R. Gibbs, A. D. Grauer, H. Groeller, J.
    K. Hogan, R. A. Kowalski, S. M. Larson, G. J. Leonard, D. Rankin, R. L.
    Seaman, F. C. Shelly, K. W. Wierzchos.  1.5-m reflector + 10K CCD.
H01 Magdalena Ridge Observatory, Socorro.  Observers W. H. Ryan, E. V. Ryan.
    Measurer W. H. Ryan.  2.4-m f/8.9 Ritchey-Chretien + CCD.
H21 Astronomical Research Observatory, Westfield.  Observer R. Holmes.
    Measurers T. Linder, R. Holmes, L. Horn.  0.76-m f/3.0 astrograph + CCD.
I52 Steward Observatory, Mt. Lemmon Station.  Observers R. A. Kowalski, D.
    Rankin.  Measurers E. C. Beshore, D. Fay, J. B. Fazekas, D. C. Fuls, A. R.
    Gibbs, A. D. Grauer, H. Groeller, J. K. Hogan, R. A. Kowalski, S. M.
    Larson, G. J. Leonard, D. Rankin, R. L. Seaman, F. C. Shelly, K. W.
    Wierzchos.  1.0-m prime focus + CCD.
Orbital elements:
2023 VB                                                  Earth MOID = 0.0049 AU
Epoch 2023 Sept. 13.0 TT = JDT 2460200.5                Veres                   
M 355.53296              (2000.0)            P               Q                  
n   0.26520095     Peri.  331.26315     +0.99641351     +0.05088085             
a   2.3993080      Node    26.08337     -0.00835432     +0.85427027             
e   0.6074227      Incl.    8.84569     -0.08420402     +0.51733301             
P   3.72           H   25.09          G   0.15           U   8                  
Residuals in seconds of arc
231101 G96  0.5-  0.1-    231101 H01  0.0   0.1+    231102 858  0.2-  0.3-
231101 G96  0.3+  0.1+    231101 H01  0.3-  0.0     231103 I52  0.1+  0.1+
231101 G96  0.0   0.3+    231102 H21  0.4+  0.0     231103 I52  0.1-  0.2-
231101 I52  0.1+  0.1+    231102 858  0.1+  0.4+    231103 I52  0.0   0.0
231101 I52  0.2+  0.3-    231102 H21  0.1+  0.1-    231103 858  0.5+  0.6+
231101 I52  0.3-  0.4-    231102 H21  0.1+  0.0     231103 858  0.1+  0.4+
231101 I52  0.2+  0.0     231102 858  0.4-  0.5+    231103 858  0.1+  0.3-
231101 H01  0.0   0.0     231102 H21  0.1-  0.2-
231101 H01  0.0   0.0     231102 H21  0.3+  0.4+
Ephemeris:
2023 VB                  a,e,i = 2.40, 0.61, 9                   q = 0.9419
Date    TT    R. A. (2000) Decl.     Delta      r    Elong.  Phase     V
2023 10 04    16 15 36.1 -45 06 25   0.1428  0.9437    62.7   109.5    24.9
...
2023 10 19    17 46 26.8 -35 03 36   0.04146 0.9780    62.8   115.1    22.6
...
2023 10 27    23 24 21.1 +43 52 33   0.02640 1.0125   133.8    45.2    19.0
...
2023 11 02    02 03 21.9 +51 03 21   0.06405 1.0444   143.1    34.8    20.7
2023 11 03    02 13 49.6 +50 57 06   0.07090 1.0502   143.7    34.0    20.9
2023 11 04    02 22 23.9 +50 48 06   0.07781 1.0561   144.2    33.3    21.1
...
2023 11 10    02 52 06.1 +49 37 13   0.1204  1.0937   147.3    29.3    22.0
...
2023 11 18    03 08 30.9 +47 57 17   0.1801  1.1491   150.7    24.9    22.8
...
2023 12 03    03 22 48.3 +44 51 18   0.3045  1.2644   152.8    20.9    24.0
M. P. C. Staff               (C) Copyright 2023 MPC           M.P.E.C. 2023-V09
    
    
More information about the Iaude
mailing list